This demonstration page uses our WeatherBlox Daily Observations layout. Learn more.

Left ArrowRight Arrow

47.50024, -111.30081

Hourly Observations for October 30, 2019

Temp ( °F °C ) Dew Point ( °F °C ) Humidity (%) Winds ( mph kmh ) Pressure ( in mb ) Visibility ( mi km ) Precip ( " mm )
12:53 am 00:53 Clear 11 -11.7 -1 -18.3 58 58 SSW 16 26 30.50 1033 10 16 0.00 0.00
1:53 am 01:53 Clear 11 -11.7 -1 -18.3 58 58 SSW 17 28 30.50 1033 10 16 0.00 0.00
2:53 am 02:53 Clear 11 -11.7 -1 -18.3 58 58 SSW 21 33 30.50 1033 10 16 0.00 0.00
3:53 am 03:53 Clear 10 -12.2 -2 -18.9 58 58 SSW 18 30 30.49 1032 10 16 0.00 0.00
4:53 am 04:53 Clear 11 -11.7 -1 -18.3 58 58 SSW 16 26 30.47 1032 10 16 0.00 0.00
5:53 am 05:53 Clear 12 -11.1 0 -17.8 58 58 SSW 17 28 30.47 1032 10 16 0.00 0.00
6:53 am 06:53 Clear 12 -11.1 -1 -18.3 56 56 SSW 17 28 30.47 1032 10 16 0.00 0.00
7:53 am 07:53 Clear 13 -10.6 0 -17.8 56 56 SSW 18 30 30.46 1032 10 16 0.00 0.00
8:53 am 08:53 Sunny 14 -10 1 -17.2 56 56 SSW 18 30 30.45 1031 10 16 0.00 0.00
9:53 am 09:53 Sunny 16 -8.9 2 -16.7 54 54 SSW 18 30 30.45 1031 10 16 0.00 0.00
10:53 am 10:53 Sunny 18 -7.8 5 -15 57 57 SSW 20 31 30.43 1030 10 16 0.00 0.00
11:53 am 11:53 Sunny 21 -6.1 7 -13.9 54 54 SSW 20 31 30.42 1030 10 16 0.00 0.00
12:53 pm 12:53 Sunny 23 -5 8 -13.3 53 53 SSW 24 39 30.39 1029 10 16 0.00 0.00
1:53 pm 13:53 Sunny 25 -3.9 12 -11.1 58 58 SSW 21 33 30.37 1029 10 16 0.00 0.00
2:53 pm 14:53 Sunny 27 -2.8 11 -11.7 51 51 SW 28 44 30.35 1028 10 16 0.00 0.00
3:53 pm 15:53 Sunny 27 -2.8 11 -11.7 51 51 SSW 23 37 30.33 1027 10 16 0.00 0.00
4:53 pm 16:53 Sunny 28 -2.2 10 -12.2 47 47 SW 20 31 30.32 1027 10 16 0.00 0.00
5:53 pm 17:53 Sunny 27 -2.8 11 -11.7 51 51 SW 22 35 30.29 1026 10 16 0.00 0.00
6:53 pm 18:53 Clear 26 -3.3 11 -11.7 53 53 SW 17 28 30.31 1026 10 16 0.00 0.00
7:53 pm 19:53 Clear 26 -3.3 11 -11.7 53 53 SW 18 30 30.30 1026 10 16 0.00 0.00
8:53 pm 20:53 Clear 27 -2.8 12 -11.1 53 53 SSW 17 28 30.28 1025 10 16 0.00 0.00
9:53 pm 21:53 Clear 28 -2.2 14 -10 56 56 SSW 21 33 30.25 1025 10 16 0.00 0.00
10:53 pm 22:53 Clear 29 -1.7 15 -9.4 56 56 SW 20 31 30.25 1024 10 16 0.00 0.00
11:53 pm 23:53 Clear 30 -1.1 14 -10 51 51 SW 20 31 30.25 1024 10 16 0.00 0.00

Powered by AerisWeather